Location: Anjeux
(47.8815°N, 6.2076°E)
Time: 21:55:48
(UTC+00:00)

X-37B - Pass Details

Date: 27 September 2021
Orbit: 322 x 349 km, 45.0° (Epoch: 28 October)

Event Time Altitude Azimuth Distance (km) Brightness Sun altitude
Exits shadow 03:18:24 19° 117° (ESE) 868 2.8 -22.1°
Drops below altitude 10° 03:19:30 10° 101° (E) 1,234 3.9 -22.0°
Sets 03:21:38 0° 89° (E) 2,066 5.4 -21.6°
